This demonstration page uses our WeatherBlox Daily Observations layout. Learn more.

Left ArrowRight Arrow

Hourly Observations for September 11, 2020

Temp ( °F °C ) Dew Point ( °F °C ) Humidity (%) Winds ( mph kmh ) Pressure ( in mb ) Visibility ( mi km ) Precip ( " mm )
12:15 am 00:15 Cloudy with Mist and Fog 51 10.3 49 9.7 96 96 E 6 9 30.30 1026 4 6 N/A
12:35 am 00:35 Cloudy 51 10.3 49 9.7 96 96 ENE 5 7 30.30 1026 10 16 N/A
12:55 am 00:55 Cloudy with Mist and Fog 51 10.5 50 9.8 95 95 ENE 3 6 30.30 1026 5 8 N/A
1:15 am 01:15 Cloudy with Mist and Fog 51 10.5 50 9.8 95 95 ENE 5 7 30.29 1026 5 8 N/A
1:35 am 01:35 Cloudy 51 10.5 50 10 97 97 E 3 6 30.30 1026 7 11 N/A
1:55 am 01:55 Cloudy 51 10.5 50 9.9 96 96 N N/A 30.30 1026 10 16 N/A
2:15 am 02:15 Cloudy 51 10.5 50 9.8 95 95 N N/A 30.30 1026 7 11 N/A
2:35 am 02:35 Cloudy with Mist and Fog 51 10.6 50 10 96 96 N N/A 30.29 1026 4 6 N/A
2:55 am 02:55 Cloudy with Mist and Fog 51 10.5 50 10 97 97 N N/A 30.28 1025 5 8 N/A
3:15 am 03:15 Cloudy with Mist and Fog 51 10.5 50 10 97 97 N N/A 30.29 1026 5 8 N/A
3:35 am 03:35 Cloudy with Mist and Fog 51 10.5 50 10 97 97 N N/A 30.28 1025 4 6 N/A
3:55 am 03:55 Cloudy with Mist and Fog 51 10.5 50 10 97 97 N N/A 30.27 1025 3 5 N/A
4:15 am 04:15 Cloudy with Mist and Fog 51 10.5 50 10 97 97 N N/A 30.25 1024 5 8 N/A
4:35 am 04:35 Cloudy with Mist and Fog 51 10.5 50 10 97 97 N N/A 30.24 1024 4 6 N/A
4:55 am 04:55 Cloudy with Mist and Fog 51 10.5 50 10 97 97 N N/A 30.24 1024 4 6 N/A
5:15 am 05:15 Cloudy 51 10.5 50 10 97 97 N N/A 30.25 1024 10 16 N/A
5:35 am 05:35 Cloudy 51 10.5 50 10 97 97 N N/A 30.24 1024 7 11 N/A
5:55 am 05:55 Cloudy 51 10.5 50 10 97 97 N N/A 30.24 1024 10 16 N/A
6:15 am 06:15 Cloudy with Light Rain 51 10.5 50 10 97 97 N N/A 30.23 1024 5 8 0.02 0.51
6:35 am 06:35 Cloudy 51 10.5 50 10 97 97 N N/A 30.23 1024 10 16 0.02 0.51
6:55 am 06:55 Cloudy 51 10.5 50 10 97 97 N N/A 30.22 1023 10 16 0.02 0.51
7:15 am 07:15 Cloudy 51 10.5 50 10 97 97 SSW 3 6 30.23 1024 10 16 N/A
7:35 am 07:35 Cloudy 51 10.5 50 10 97 97 S 3 6 30.23 1024 10 16 N/A
7:55 am 07:55 Cloudy 51 10.5 50 10 97 97 S 3 6 30.23 1024 10 16 N/A
8:15 am 08:15 Cloudy with Mist and Fog 51 10.5 50 10 97 97 N N/A 30.23 1024 1 2 N/A
8:35 am 08:35 Cloudy with Mist and Fog 51 10.5 50 10 97 97 S 3 6 30.21 1023 1 2 N/A
8:55 am 08:55 Cloudy with Mist and Fog 51 10.6 50 10.1 97 97 S 3 6 30.22 1023 1 1 N/A
9:15 am 09:15 Cloudy with Mist and Fog 52 11 51 10.5 97 97 SSW 3 6 30.21 1023 1 2 N/A
9:35 am 09:35 Cloudy 52 11.2 51 10.7 97 97 N N/A 30.19 1022 10 16 N/A
9:55 am 09:55 Cloudy 53 11.5 51 10.8 96 96 SW 5 7 30.20 1023 10 16 N/A
10:15 am 10:15 Cloudy 53 11.6 51 10.3 92 92 SW 5 7 30.19 1022 7 11 N/A
10:35 am 10:35 Cloudy 54 12.1 51 10.5 90 90 SW 6 9 30.19 1022 10 16 N/A
10:55 am 10:55 Cloudy 54 12.1 51 10.3 89 89 SW 3 6 30.18 1022 10 16 N/A
11:15 am 11:15 Cloudy 55 12.7 51 10.6 87 87 SW 5 7 30.18 1022 10 16 N/A
11:35 am 11:35 Cloudy 55 12.8 50 10.2 84 84 SSW 5 7 30.18 1022 10 16 N/A
11:55 am 11:55 Cloudy 55 13 50 9.9 82 82 WSW 5 7 30.15 1021 10 16 N/A
12:15 pm 12:15 Cloudy 56 13.2 50 10 81 81 N N/A 30.14 1021 10 16 N/A
12:35 pm 12:35 Cloudy 57 14 50 9.8 76 76 N N/A 30.14 1021 10 16 N/A
12:55 pm 12:55 Cloudy 57 14 50 9.9 77 77 N N/A 30.11 1020 10 16 N/A
1:15 pm 13:15 Cloudy 58 14.4 50 9.9 75 75 S 5 7 30.11 1020 10 16 N/A
1:35 pm 13:35 Cloudy 59 14.8 50 10 73 73 SSW 3 6 30.09 1019 10 16 N/A
1:55 pm 13:55 Cloudy 59 15.1 50 10.1 72 72 SSE 5 7 30.09 1019 10 16 N/A
2:15 pm 14:15 Cloudy 60 15.5 49 9.7 69 69 SSE 3 6 30.07 1018 10 16 N/A
2:35 pm 14:35 Cloudy 61 16.2 50 9.8 66 66 S 7 11 30.04 1017 10 16 N/A
2:55 pm 14:55 Cloudy 62 16.7 50 9.8 64 64 SSW 5 7 30.02 1017 10 16 N/A
3:55 pm 15:55 Cloudy 62 16.5 50 10.1 66 66 SSE 5 7 30.02 1016 10 16 N/A
4:35 pm 16:35 Cloudy 62 16.9 50 10 64 64 S 6 9 30.01 1016 10 16 N/A
4:55 pm 16:55 Cloudy 63 17.4 50 10.2 63 63 S 3 6 30.00 1016 10 16 N/A
5:15 pm 17:15 Cloudy 64 17.6 50 10.2 62 62 SSE 9 15 29.98 1015 10 16 N/A
5:35 pm 17:35 Mostly Cloudy 63 17.1 50 10.2 64 64 SSE 6 9 29.97 1015 10 16 N/A
5:55 pm 17:55 Partly Cloudy 63 17.3 51 10.4 64 64 S 5 7 29.98 1015 10 16 N/A
6:15 pm 18:15 Partly Cloudy 64 17.6 51 10.5 63 63 SSE 6 9 29.99 1015 10 16 N/A
6:35 pm 18:35 Sunny 64 17.5 51 10.5 64 64 SE 6 9 29.98 1015 10 16 N/A
6:55 pm 18:55 Sunny 63 17.4 51 10.4 64 64 SSE 7 11 29.95 1014 10 16 N/A
7:15 pm 19:15 Sunny 62 16.7 51 10.7 68 68 SSE 3 6 29.95 1014 10 16 N/A
7:35 pm 19:35 Sunny 60 15.6 51 10.6 72 72 N N/A 29.97 1015 10 16 N/A
7:55 pm 19:55 Clear 58 14.2 51 10.3 78 78 SE 5 7 29.99 1015 10 16 N/A
8:15 pm 20:15 Clear 56 13.3 51 10.3 82 82 SE 6 9 29.99 1016 10 16 N/A
8:35 pm 20:35 Clear 55 13 51 10.3 84 84 SE 7 11 29.99 1015 10 16 N/A
8:55 pm 20:55 Clear 55 12.5 50 10.2 86 86 SE 8 13 29.99 1016 10 16 N/A
9:15 pm 21:15 Clear 54 12.2 50 10.1 87 87 SE 7 11 30.00 1016 10 16 N/A
9:35 pm 21:35 Clear 54 12 50 10.2 89 89 SE 7 11 30.00 1016 10 16 N/A
9:55 pm 21:55 Clear 54 12 51 10.5 91 91 SE 9 15 30.00 1016 10 16 N/A
10:15 pm 22:15 Clear 54 12.1 51 10.6 91 91 SSE 10 17 29.98 1015 10 16 N/A
10:35 pm 22:35 Clear 54 12 51 10.8 92 92 SSE 7 11 29.99 1015 10 16 N/A
10:55 pm 22:55 Partly Cloudy 53 11.9 52 10.9 94 94 SSE 7 11 29.99 1015 10 16 N/A
11:15 pm 23:15 Partly Cloudy 53 11.9 52 11 94 94 SSE 9 15 29.99 1015 10 16 N/A
11:35 pm 23:35 Mostly Cloudy 54 12 52 11.2 95 95 S 8 13 30.00 1016 10 16 N/A
11:55 pm 23:55 Cloudy 54 12.1 52 11.3 95 95 SSE 10 17 29.99 1016 10 16 N/A

Powered by AerisWeather